Hughes, AK

2:27 AM AKST on February 22, 2017 (GMT -0900)
Indian Mountain

Weather History for PAIM - October, 2012

Change the Weather History Date:

Tuesday, October 2, 2012

  Actual Average Record
Temperature  
Mean Temperature 33 °F -  
Max Temperature 36 °F 32 °F 45 °F (2010)
Min Temperature 31 °F 23 °F 10 °F (1996)
Degree Days  
Heating Degree Days 32    
Moisture  
Dew Point 32 °F    
Average Humidity 96    
Maximum Humidity 100    
Minimum Humidity 92    
Precipitation  
Precipitation 0.29 in - - ()
Sea Level Pressure  
Sea Level Pressure 30.15 in    
Wind  
Wind Speed 2 mph (SW)    
Max Wind Speed 4 mph    
Max Gust Speed -    
Visibility 4 miles    
Events Rain , Snow    
Averages and records for this station are not official NWS values.
T = Trace of Precipitation, MM = Missing Value Source: NWS Daily Summary

Daily Weather History Graph

Daily Weather History Graph

Search for Another Location

Airport or City:

Trip Planner

Search our weather history database for the weather conditions in past years. The results will help you decide how hot, cold, wet, or windy it might be!

Date:

Astronomy

Oct. 02, 2012 Rise Set
Actual Time 8:31 AM AKDT 7:35 PM AKDT
Civil Twilight 7:39 AM AKDT 8:25 PM AKDT
Nautical Twilight 6:39 AM AKDT 9:25 PM AKDT
Astronomical Twilight 5:33 AM AKDT 10:31 PM AKDT
Moon 7:17 PM AKDT (10/2) 12:40 PM AKDT (10/2)
Length of Visible Light 12h 45m
Length of Day
11h 04m
Waning Gibbous, 93% of the Moon is Illuminated
Oct 2
Waning Gibbous
Oct 7
Last Quarter
Oct 15
New
Oct 21
First Quarter
Oct 29
Full

Hourly Weather History & Observations

Time (AKDT) Temp. Windchill Dew Point Humidity Pressure Visibility Wind Dir Wind Speed Gust Speed Precip Events Conditions
12:27 AM 32.0 °F - 30.2 °F 93% 30.20 in 2.5 mi West 1.2 mph - N/A Snow Light Snow
12:47 AM 32.0 °F - 30.2 °F 93% 30.20 in 4.0 mi Variable 1.2 mph - N/A Snow Light Snow
12:55 AM 31.3 °F - 30.0 °F 95% 30.20 in 4.0 mi WSW 2.3 mph - 0.03 in Snow Light Snow
1:27 AM 32.0 °F - 30.2 °F 93% 30.20 in 2.5 mi WNW 2.3 mph - N/A Snow Light Snow
1:55 AM 31.5 °F 28.1 °F 30.4 °F 96% 30.19 in 3.0 mi West 3.5 mph - 0.02 in Snow Light Snow
2:07 AM 32.0 °F - 30.2 °F 93% 30.19 in 2.5 mi West 1.2 mph - N/A Snow Light Snow
2:27 AM 32.0 °F - 30.2 °F 93% 30.19 in 1.5 mi West 2.3 mph - N/A Snow Light Snow
2:55 AM 31.3 °F - 30.4 °F 96% 30.19 in 1.5 mi Variable 1.2 mph - 0.04 in Snow Light Snow
3:27 AM 32.0 °F - 30.2 °F 93% 30.19 in 3.0 mi WSW 2.3 mph - N/A Snow Light Snow
3:47 AM 32.0 °F - 30.2 °F 93% 30.19 in 6.0 mi SE 1.2 mph - N/A Snow Light Snow
3:55 AM 31.1 °F - 30.7 °F 99% 30.18 in 10.0 mi South 1.2 mph - 0.05 in Snow Light Snow
4:47 AM 32.0 °F - 30.2 °F 93% 30.18 in 1.8 mi Calm Calm - N/A Snow Light Snow
4:55 AM 31.3 °F - 30.7 °F 98% 30.18 in 2.5 mi Variable 1.2 mph - 0.02 in Snow Light Snow
5:27 AM 32.0 °F - 30.2 °F 93% 30.17 in 1.8 mi SSE 2.3 mph - N/A Snow Light Snow
5:47 AM 32.0 °F 28.7 °F 32.0 °F 100% 30.17 in 2.0 mi South 3.5 mph - N/A Snow Light Snow
5:55 AM 32.2 °F - 30.9 °F 95% 30.17 in 3.0 mi SSE 2.3 mph - 0.03 in Snow Light Snow
6:07 AM 32.0 °F - 32.0 °F 100% 30.17 in 3.0 mi Variable 1.2 mph - N/A Snow Light Snow
6:27 AM 32.0 °F - 32.0 °F 100% 30.16 in 2.0 mi WNW 2.3 mph - N/A Snow Light Snow
6:47 AM 32.0 °F - 32.0 °F 100% 30.16 in 3.0 mi West 1.2 mph - N/A Snow Light Snow
6:55 AM 31.8 °F - 31.3 °F 98% 30.16 in 4.0 mi Variable 1.2 mph - 0.06 in Snow Light Snow
7:07 AM 32.0 °F - 32.0 °F 100% 30.16 in 2.5 mi SE 1.2 mph - N/A Snow Light Snow
7:47 AM 32.0 °F - 32.0 °F 100% 30.15 in 2.5 mi SSE 1.2 mph - N/A Snow Light Snow
7:55 AM 31.8 °F - 31.3 °F 98% 30.15 in 2.0 mi Variable 1.2 mph - 0.04 in Snow Light Snow
8:07 AM 32.0 °F - 32.0 °F 100% 30.15 in 2.5 mi Variable 1.2 mph - N/A Snow Light Snow
8:27 AM 32.0 °F - 32.0 °F 100% 30.14 in 1.0 mi SE 2.3 mph - N/A Snow Light Snow
1:55 PM 33.8 °F - 32.7 °F 96% 30.14 in 10.0 mi SSW 2.3 mph - N/A   Overcast
4:47 PM 35.6 °F - 33.8 °F 93% 30.12 in 2.5 mi North 1.2 mph - N/A   Mostly Cloudy
4:55 PM 34.7 °F - 33.8 °F 97% 30.12 in 10.0 mi SSE 2.3 mph - 0.00 in   Mostly Cloudy
5:47 PM 35.6 °F 32.8 °F 33.8 °F 93% 30.12 in 10.0 mi SSW 3.5 mph - N/A Rain Light Rain Showers
5:55 PM 35.4 °F - 33.8 °F 94% 30.12 in 10.0 mi ESE 2.3 mph - N/A   Overcast
6:55 PM 34.9 °F - 33.8 °F 96% 30.11 in 10.0 mi Variable 1.2 mph - N/A   Mostly Cloudy
7:47 PM 33.8 °F - 33.8 °F 100% 30.10 in 2.5 mi WNW 2.3 mph - N/A   Overcast
7:55 PM 34.2 °F - 33.4 °F 97% 30.11 in 10.0 mi Calm Calm - N/A   Overcast
8:47 PM 33.8 °F 30.8 °F 32.0 °F 93% 30.11 in 2.5 mi WNW 3.5 mph - N/A   Overcast
8:55 PM 34.7 °F - 33.8 °F 97% 30.12 in 3.0 mi Variable 2.3 mph - N/A   Overcast
9:48 PM 33.8 °F - 32.0 °F 93% 30.11 in 2.5 mi NW 2.3 mph - N/A   Mostly Cloudy
9:55 PM 33.3 °F - 32.5 °F 97% 30.11 in 3.0 mi Variable 1.2 mph - N/A   Mostly Cloudy
10:55 PM 34.5 °F - 32.5 °F 92% 30.11 in 10.0 mi Variable 2.3 mph - N/A   Overcast
11:55 PM 34.2 °F - 32.7 °F 94% 30.11 in 10.0 mi Variable 1.2 mph - N/A   Overcast